Bellambi Observation History
Time Wind Speed Temp Pressure Rel. Hum Rain
05/09:00pm WSW 8-9 kts 11.2°c n/a 68% 0.0mm
05/08:30pm W 6-7 kts 11.3°c n/a 70% 0.0mm
05/08:00pm WSW 5-6 kts 11.2°c n/a 73% 0.0mm
05/07:30pm WSW 6-7 kts 11.8°c n/a 68% 0.0mm
05/07:00pm W 6-8 kts 13.3°c n/a 63% 0.0mm
05/06:30pm WNW 7-9 kts 12.7°c n/a 67% 0.0mm
05/06:00pm W 6-7 kts 12.5°c n/a 73% 0.0mm
05/05:30pm WSW 7 kts 12.9°c n/a 71% 0.0mm
05/05:00pm W 6-7 kts 13.8°c n/a 68% 0.0mm
05/04:30pm WSW 4-6 kts 15.6°c n/a 60% 0.0mm
05/04:00pm CALM 0 kts 16.8°c n/a 53% 0.0mm
05/03:30pm ENE 3-5 kts 17.4°c n/a 54% 0.0mm
05/03:00pm NE 5-6 kts 17.3°c n/a 51% 0.0mm
05/02:30pm NNE 5-7 kts 17.6°c n/a 52% 0.0mm
05/02:00pm E 5-7 kts 17.5°c n/a 50% 0.0mm
05/01:30pm NNE 5-6 kts 17.3°c n/a 48% 0.0mm
05/01:00pm ENE 5-6 kts 17.3°c n/a 49% 0.0mm
05/12:30pm ESE 5 kts 16.8°c n/a 48% 0.0mm
05/12:00pm ESE 5-6 kts 16.7°c n/a 51% 0.0mm
05/11:30am ESE 5 kts 16.3°c n/a 53% 0.0mm
05/11:00am E 5 kts 15.7°c n/a 48% 0.0mm
05/10:30am NE 4-5 kts 16.0°c n/a 50% 0.0mm
05/10:00am N 4-5 kts 15.3°c n/a 51% 0.0mm
05/09:30am SSE 1-3 kts 14.7°c n/a 50% 0.0mm
05/09:00am W 1-3 kts 13.4°c n/a 59% 0.0mm
05/08:30am WSW 2-4 kts 11.3°c n/a 67% 0.0mm
05/08:00am WNW 4-6 kts 10.1°c n/a 71% 0.0mm
05/07:30am WNW 4-6 kts 9.0°c n/a 75% 0.0mm
05/07:00am WNW 4-5 kts 8.3°c n/a 75% 0.0mm
05/06:30am WNW 3-4 kts 8.5°c n/a 75% 0.0mm
05/06:00am W 4-6 kts 8.7°c n/a 75% 0.0mm
05/05:30am WNW 4-5 kts 8.8°c n/a 74% 0.0mm
05/05:00am NW 5 kts 8.6°c n/a 73% 0.0mm
05/04:30am NW 4-5 kts 8.6°c n/a 74% 0.0mm
05/04:00am NW 5-6 kts 8.7°c n/a 74% 0.0mm
05/03:30am WNW 5-6 kts 8.9°c n/a 72% 0.0mm
05/03:00am NW 5-6 kts 8.8°c n/a 75% 0.0mm
05/02:30am W 5 kts 8.6°c n/a 73% 0.0mm
05/02:00am W 7 kts 8.5°c n/a 74% 0.0mm
05/01:30am W 7 kts 9.1°c n/a 73% 0.0mm
05/01:00am W 7-8 kts 8.7°c n/a 74% 0.0mm
05/12:30am W 5 kts 9.0°c n/a 71% 0.0mm
05/12:00am WSW 7-8 kts 9.6°c n/a 69% 0.0mm
Time Wind Speed Temp Pressure Rel. Hum Rain
04/11:30pm WSW 6-7 kts 9.9°c n/a 68% 0.0mm
04/11:00pm W 7-8 kts 10.1°c n/a 68% 0.0mm
04/10:30pm WSW 7-8 kts 10.2°c n/a 68% 0.0mm
04/10:00pm W 6-7 kts 10.6°c n/a 68% 0.0mm
04/09:30pm W 6-7 kts 10.7°c n/a 70% 0.0mm
04/09:00pm W 7 kts 10.7°c n/a 70% 0.0mm
04/08:30pm WSW 7-8 kts 10.7°c n/a 70% 0.0mm
04/08:00pm WSW 6-7 kts 10.6°c n/a 70% 0.0mm
04/07:30pm WSW 6-7 kts 10.5°c n/a 70% 0.0mm
04/07:00pm WSW 6-7 kts 11.0°c n/a 69% 0.0mm
04/06:30pm WSW 7-8 kts 11.5°c n/a 67% 0.0mm
04/06:00pm WSW 6-9 kts 12.2°c n/a 63% 0.0mm
04/05:30pm S 10-13 kts 14.5°c n/a 61% 0.0mm
04/05:00pm S 11-14 kts 14.7°c n/a 60% 0.0mm
04/04:30pm SSE 10-13 kts 14.7°c n/a 59% 0.0mm
04/04:00pm SSE 11-14 kts 15.1°c n/a 58% 0.0mm
04/03:30pm S 11-13 kts 15.3°c n/a 55% 0.0mm
04/03:00pm SSE 10-13 kts 15.6°c n/a 54% 0.0mm
04/02:30pm S 10-15 kts 15.6°c n/a 49% 0.0mm
04/02:00pm S 8-11 kts 15.8°c n/a 47% 0.0mm
04/01:30pm S 10-13 kts 15.4°c n/a 50% 0.0mm
04/01:00pm SSW 9-12 kts 15.5°c n/a 48% 0.0mm
04/12:30pm SSW 12-16 kts 15.3°c n/a 52% 0.0mm
04/12:00pm SSW 11-14 kts 15.3°c n/a 54% 0.0mm
04/11:30am SW 9-15 kts 14.8°c n/a 49% 0.0mm
04/11:00am SSW 12-17 kts 14.7°c n/a 52% 0.0mm
04/10:30am SSW 13-18 kts 14.4°c n/a 52% 0.0mm
04/10:00am SSW 13-17 kts 14.3°c n/a 51% 0.0mm
04/09:30am SW 13-18 kts 13.5°c n/a 49% 0.0mm
04/09:00am SW 9-14 kts 13.3°c n/a 52% 0.0mm
04/08:30am WSW 9-13 kts 12.3°c n/a 52% 0.0mm
04/08:00am SW 9-12 kts 11.5°c n/a 55% 0.0mm
04/07:30am SW 10-13 kts 10.9°c n/a 57% 0.0mm
04/07:00am SW 9-11 kts 10.5°c n/a 57% 0.0mm
04/06:30am SW 9-13 kts 11.2°c n/a 54% 0.0mm
04/06:00am SW 9-11 kts 11.2°c n/a 54% 0.0mm
04/05:30am SW 9-13 kts 11.3°c n/a 54% 0.0mm
04/05:00am SW 8-11 kts 11.3°c n/a 54% 0.0mm
04/04:30am SW 9-14 kts 11.8°c n/a 53% 0.0mm
04/04:00am SW 9-13 kts 11.8°c n/a 52% 0.0mm
04/03:30am SW 10-14 kts 11.9°c n/a 53% 0.0mm
04/03:00am SW 10-15 kts 11.8°c n/a 53% 0.0mm
04/02:30am SW 9-11 kts 11.7°c n/a 56% 0.0mm
04/02:00am SW 9-12 kts 11.6°c n/a 55% 0.0mm
04/01:30am SW 11-15 kts 12.0°c n/a 54% 0.0mm
04/01:00am SW 10-15 kts 11.9°c n/a 58% 0.0mm
04/12:30am SW 10-15 kts 11.9°c n/a 61% 0.0mm
04/12:00am SW 11-14 kts 11.8°c n/a 63% 0.0mm
Time Wind Speed Temp Pressure Rel. Hum Rain
03/11:30pm SW 10-13 kts 11.6°c n/a 62% 0.0mm
03/11:00pm SW 10-16 kts 11.8°c n/a 60% 0.0mm
03/10:30pm SW 11-15 kts 12.4°c n/a 59% 0.0mm
03/10:00pm WSW 11-13 kts 12.4°c n/a 61% 0.0mm
03/09:30pm SW 10-13 kts 12.7°c n/a 63% 0.0mm
03/09:00pm WSW 10-14 kts 12.9°c n/a 63% 0.0mm
03/08:30pm SW 9-13 kts 12.9°c n/a 63% 0.0mm
03/08:00pm SW 9-13 kts 12.9°c n/a 63% 0.0mm
03/07:30pm SW 9-12 kts 13.2°c n/a 59% 0.0mm
03/07:00pm WSW 9-15 kts 13.2°c n/a 58% 0.0mm
03/06:30pm SW 10-18 kts 13.7°c n/a 55% 0.0mm
03/06:00pm WSW 8-10 kts 13.6°c n/a 55% 0.0mm
03/05:30pm SW 10-17 kts 14.1°c n/a 54% 0.0mm
03/05:24pm SSW 14-19 kts 14.4°c n/a 54% 0.0mm
03/05:00pm S 21-24 kts 15.4°c n/a 59% 0.0mm
03/04:30pm S 19-22 kts 15.7°c n/a 52% 0.0mm
03/04:00pm S 17-21 kts 16.1°c n/a 48% 0.0mm
03/03:30pm S 18-21 kts 16.3°c n/a 50% 0.0mm
03/03:00pm S 17-21 kts 16.3°c n/a 47% 0.0mm
03/02:30pm S 20-25 kts 16.5°c n/a 49% 0.0mm
03/02:00pm S 21-27 kts 16.2°c n/a 51% 0.0mm
03/01:30pm S 21-27 kts 16.5°c n/a 46% 0.0mm
03/01:00pm SSW 17-23 kts 17.0°c n/a 40% 0.0mm
03/12:30pm SSW 18-25 kts 16.8°c n/a 43% 0.0mm
03/12:01pm SSW 19-29 kts 17.1°c n/a 41% 0.0mm
03/12:00pm SSW 18-24 kts 17.1°c n/a 41% 0.0mm
03/11:30am SSW 18-25 kts 17.1°c n/a 41% 0.0mm
03/11:00am SSW 19-24 kts 16.9°c n/a 40% 0.0mm
03/10:30am SSW 18-26 kts 17.0°c n/a 43% 0.0mm
03/10:00am SW 12-17 kts 16.3°c n/a 45% 0.0mm
03/09:49am WSW 15-23 kts 16.0°c n/a 43% 0.0mm
03/09:30am W 7-12 kts 16.0°c n/a 46% 0.0mm
03/09:00am W 7-12 kts 15.3°c n/a 48% 0.0mm
03/08:30am W 10-14 kts 14.4°c n/a 50% 0.0mm
03/08:00am WSW 11-18 kts 14.0°c n/a 50% 0.0mm
03/07:30am W 13-17 kts 13.7°c n/a 50% 0.0mm
03/07:00am WSW 14-21 kts 13.4°c n/a 51% 0.0mm
03/06:30am WSW 15-21 kts 13.5°c n/a 52% 0.0mm
03/06:00am W 16-23 kts 13.1°c n/a 55% 0.0mm
03/05:30am W 15-26 kts 13.0°c n/a 55% 0.0mm
03/05:27am W 15-26 kts 13.2°c n/a 55% 0.0mm
03/05:00am W 14-23 kts 13.0°c n/a 54% 0.0mm
03/04:30am WSW 12-19 kts 13.0°c n/a 54% 0.0mm
03/04:13am WSW 15-25 kts 13.3°c n/a 52% 0.0mm
03/04:00am WSW 14-21 kts 13.0°c n/a 53% 0.0mm
03/03:30am W 8-15 kts 12.8°c n/a 54% 0.0mm
03/03:00am W 12-20 kts 12.9°c n/a 54% 0.0mm
03/02:30am W 11-17 kts 12.6°c n/a 55% 0.0mm
03/02:00am W 12-17 kts 12.6°c n/a 56% 0.0mm
03/01:30am WSW 10-17 kts 12.4°c n/a 57% 0.0mm
03/01:00am WSW 11-19 kts 12.4°c n/a 56% 0.0mm
03/12:30am WSW 9-14 kts 12.1°c n/a 57% 0.0mm
03/12:00am WSW 7-12 kts 11.8°c n/a 57% 0.0mm